This demonstration page uses our WeatherBlox Daily Observations layout. Learn more.

38.89511, -77.03637

Hourly Observations for April 15, 2015

Temp ( °F °C ) Dew Point ( °F °C ) Humidity (%) Winds ( mph kmh ) Pressure ( in mb ) Visibility ( mi km ) Precip ( " mm )
12:52 am 00:52 Cloudy 55 13 46 8 72 72 N 5 7 30.15 1021 10 16.09344 0.001 0.001
1:52 am 01:52 Cloudy 57 14 46 8 67 67 NNE 7 11 30.15 1021 10 16.09344 0.001 0.001
2:52 am 02:52 Cloudy 55 13 46 8 72 72 NNW 5 7 30.15 1021 10 16.09344 0 0
3:52 am 03:52 Cloudy 55 13 46 8 72 72 NNW 6 9 30.15 1021 10 16.09344 0 0
4:52 am 04:52 Partly Cloudy 54 12 45 7 72 72 NW 6 9 30.15 1021 10 16.09344 0 0
5:52 am 05:52 Partly Cloudy 54 12 43 6 67 67 NNW 6 9 30.18 1022 10 16.09344 0 0
6:52 am 06:52 Mostly Cloudy 54 12 43 6 67 67 NNW 9 15 30.21 1023 10 16.09344 0 0
7:52 am 07:52 Cloudy 55 13 43 6 63 63 N 8 13 30.24 1024 10 16.09344 0 0
8:52 am 08:52 Cloudy 57 14 34 1 41 41 NNE 13 20 30.24 1024 10 16.09344 0 0
9:52 am 09:52 Cloudy 61 16 34 1 36 36 NNE 10 17 30.27 1025 10 16.09344 0 0
10:52 am 10:52 Cloudy 63 17 36 2 37 37 NNE 8 13 30.27 1025 10 16.09344 0 0
11:52 am 11:52 Cloudy 63 17 36 2 37 37 NNE 9 15 30.27 1025 10 16.09344 0 0
12:52 pm 12:52 Cloudy 64 18 36 2 34 34 NNE 9 15 30.27 1025 10 16.09344 0 0
1:52 pm 13:52 Cloudy 66 19 36 2 32 32 N 10 17 30.27 1025 10 16.09344 0 0
2:52 pm 14:52 Cloudy 66 19 34 1 30 30 NNW 10 17 30.24 1024 10 16.09344 0 0
3:52 pm 15:52 Mostly Cloudy 68 20 34 1 28 28 N 12 19 30.27 1025 10 16.09344 0 0
4:52 pm 16:52 Cloudy 66 19 34 1 30 30 N 13 20 30.24 1024 10 16.09344 0 0
5:52 pm 17:52 Cloudy 66 19 32 0 28 28 NNE 9 15 30.27 1025 10 16.09344 0 0
6:52 pm 18:52 Cloudy 64 18 34 1 32 32 N 5 7 30.27 1025 10 16.09344 0 0
7:52 pm 19:52 Cloudy 63 17 30 -1 30 30 N 3 6 30.3 1026 10 16.09344 0 0
8:52 pm 20:52 Cloudy 63 17 30 -1 30 30 N 5 7 30.3 1026 10 16.09344 0 0
9:52 pm 21:52 Cloudy 61 16 39 4 45 45 S 6 9 30.33 1027 10 16.09344 0 0
10:52 pm 22:52 Cloudy 61 16 36 2 39 39 Calm 30.33 1027 10 16.09344 0 0
11:52 pm 23:52 Cloudy 59 15 36 2 42 42 Calm 30.36 1028 10 16.09344 0 0

Powered by AerisWeather